Location: Bonny Doon Airfield
(37.0704°N, 122.1252°W)
Time: 22:27:56
(UTC-07:00)

ISS - Pass Details

Date: 14 October 2017
Orbit: 401 x 408 km, 51.6° (Epoch: 19 October)

Event Time Altitude Azimuth Distance (km) Brightness Sun altitude
Rises 19:31:57 0° 312° (NW) 2,322 0.8 -12.6°
Reaches altitude 10° 19:34:03 10° 315° (NW) 1,461 -0.4 -13.0°
Maximum altitude 19:37:18 67° 39° (NE) 442 -3.9 -13.7°
Enters shadow 19:39:00 25° 116° (ESE) 850 -2.7 -14.0°
